[[{"header":{"parameterUnit":"m.s-1","parameterCategory":1,"la1":30.2991,"la2":30.254,"lo1":-89.0895,"lo2":-89.0444,"dy":0.0017,"dx":0.0017,"nx":28,"ny":28,"refTime":"2023-09-09T21:00:00:Z","depth":0,"parameterNumber":2,"parameterNumberName":"U-component_of_WINDS"},"data":[0,0,0,0,0,0,0,0,0,0,0,0,0,0,0,0,0,0,0,0,0,0,0,0,0,0,0,0,0,0,0,0,0,0,0,0,0,0,0,0,0,0,0,0,0,0,0,0,0,0,0,0,0,0,0,0,0,0,-1.5442,-1.5441,0,-1.5379,-1.5379,-1.5378,-1.5291,-1.529,-1.5289,-1.5287,-1.5224,-1.5223,-1.5223,0,0,0,0,0,0,0,0,0,0,0,0,0,-1.5488,-1.5487,-1.5442,-1.5441,-1.5441,-1.5379,-1.5378,-1.5378,-1.5292,-1.529,-1.5288,-1.5287,-1.5224,-1.5223,-1.5223,0,0,0,0,0,0,0,0,0,0,0,0,0,-1.5451,-1.5487,-1.5442,-1.539,-1.5385,-1.538,-1.5378,-1.5377,-1.5292,-1.529,-1.5288,-1.5286,-1.5224,-1.5223,-1.5223,-1.5263,0,0,-1.5221,-1.5221,0,0,0,0,0,0,0,0,-1.5453,-1.5449,-1.5399,-1.5394,-1.5388,-1.5341,-1.5371,-1.5339,-1.5293,-1.5327,-1.5287,-1.5285,-1.5264,-1.526,-1.5253,-1.526,-1.5258,-1.5221,-1.5221,-1.5221,-1.5221,0,0,0,0,0,0,0,-1.5456,-1.5451,-1.5417,-1.5398,-1.5392,-1.537,-1.5362,-1.5365,-1.5309,-1.5324,-1.5318,-1.5312,-1.5261,-1.5254,-1.5251,-1.5257,-1.5221,-1.5221,-1.522,-1.522,-1.5293,-1.5295,0,0,0,0,0,0,-1.5466,-1.5454,-1.5419,-1.5415,-1.5416,-1.5371,-1.5362,-1.5358,-1.5309,-1.5299,-1.5313,-1.5308,-1.5256,-1.5252,-1.5249,-1.5293,-1.5221,-1.522,-1.522,-1.5291,-1.5293,-1.5296,0,0,0,0,0,0,-1.5467,-1.5464,-1.5422,-1.5433,-1.5426,-1.5373,-1.5369,-1.5358,-1.5351,-1.5301,-1.529,-1.5317,-1.5254,-1.525,-1.526,-1.529,-1.522,-1.522,-1.5288,-1.5292,-1.5295,-1.5382,0,0,0,0,0,0,-1.5469,-1.5465,-1.548,-1.5434,-1.5426,-1.5435,-1.537,-1.5359,-1.535,-1.5342,-1.5301,-1.5292,-1.5252,-1.5261,-1.526,-1.5288,-1.5219,-1.5285,-1.529,-1.5294,-1.5376,-1.5388,-1.5398,0,0,0,0,0,-1.5471,-1.5507,-1.5481,-1.5477,-1.5443,-1.5437,-1.5432,-1.5385,-1.5353,-1.5368,-1.5335,-1.5293,-1.5286,-1.5263,-1.5261,-1.5289,-1.5283,-1.5288,-1.5293,-1.5371,-1.5386,-1.5398,0,0,0,0,0,0,-1.5558,-1.55,-1.5471,-1.5493,-1.547,-1.5422,-1.5439,-1.5402,-1.5388,-1.5381,-1.5324,-1.5315,-1.5333,-1.5312,-1.5287,-1.5325,-1.5278,-1.5283,-1.5339,-1.5352,-1.5362,-1.5368,-1.5219,0,0,0,0,0,-1.558,-1.5579,-1.5528,-1.5553,-1.5543,-1.5494,-1.5489,-1.5455,-1.5429,-1.5419,-1.5387,-1.5364,-1.5356,-1.5352,-1.5343,-1.5372,-1.5362,-1.539,-1.5401,-1.541,-1.5415,-1.5429,-1.5441,-1.5312,-1.5312,-1.5312,0,0,-1.5626,-1.5594,-1.5597,-1.557,-1.5549,-1.5549,-1.5486,-1.5489,-1.5489,-1.5419,-1.5428,-1.5403,-1.5373,-1.5394,-1.5401,-1.5376,-1.5448,-1.5416,-1.5424,-1.5424,-1.5435,-1.5447,-1.5458,-1.5316,-1.5315,-1.5315,0,0,-1.5709,-1.5684,-1.5702,-1.5682,-1.5649,-1.5616,-1.562,-1.5577,-1.5558,-1.5565,-1.5513,-1.5511,-1.55,-1.548,-1.5469,-1.5543,-1.5504,-1.5542,-1.5599,-1.5613,-1.5623,-1.5631,-1.5658,-1.5669,-1.5547,-1.5547,-1.5547,0,-1.577,-1.5768,-1.5716,-1.5723,-1.5713,-1.5648,-1.5666,-1.5648,-1.5615,-1.561,-1.5582,-1.5565,-1.5541,-1.5555,-1.5574,-1.5566,-1.5569,-1.5547,-1.5625,-1.5634,-1.5641,-1.5666,-1.5676,-1.5552,-1.5551,-1.5551,-1.555,0,-1.5845,-1.5844,-1.5863,-1.5831,-1.5823,-1.5835,-1.5785,-1.5782,-1.5749,-1.5718,-1.5726,-1.5693,-1.5676,-1.5676,-1.5644,-1.5686,-1.5672,-1.5636,-1.5588,-1.5659,-1.5681,-1.5691,-1.5559,-1.5557,-1.5555,-1.5554,0,0,-1.5983,-1.5922,-1.593,-1.5914,-1.5873,-1.5872,-1.5881,-1.5863,-1.5862,-1.5841,-1.5847,-1.5838,-1.5804,-1.5791,-1.5755,-1.5767,-1.5828,-1.5729,-1.5727,-1.5749,-1.5873,-1.5902,-1.5914,-1.5801,-1.5803,-1.5804,-1.5876,0,-1.6059,-1.6071,-1.6024,-1.6048,-1.6047,-1.5985,-1.5993,-1.5968,-1.5939,-1.5934,-1.5901,-1.5896,-1.5851,-1.5843,-1.5852,-1.5819,-1.5852,-1.5813,-1.5807,-1.5807,-1.5818,-1.5925,-1.5955,-1.6025,-1.5884,-1.5886,-1.5887,0,-1.615,-1.6133,-1.6157,-1.6114,-1.6112,-1.6119,-1.6099,-1.6095,-1.6065,-1.6043,-1.6028,-1.5986,-1.5992,-1.5945,-1.5951,-1.5925,-1.592,-1.5903,-1.5904,-1.5903,-1.5853,-1.5928,-1.6046,-1.6057,-1.59,-1.5899,-1.5898,0,-1.625,-1.6233,-1.6244,-1.6233,-1.6183,-1.619,-1.6169,-1.6138,-1.613,-1.6112,-1.6106,-1.6089,-1.608,-1.6067,-1.6022,-1.5992,-1.6033,-1.5983,-1.6016,-1.6017,-1.6028,-1.6029,-1.6149,-1.6023,-1.6023,-1.6023,-1.6023,0,-1.6341,-1.6358,-1.6288,-1.6296,-1.6313,-1.6258,-1.6277,-1.625,-1.6222,-1.6223,-1.6168,-1.617,-1.6109,-1.6105,-1.6069,-1.608,-1.6076,-1.6058,-1.6049,-1.6064,-1.6066,-1.606,-1.6055,-1.6026,-1.6025,-1.6024,-1.6024,0,-1.6456,-1.641,-1.6419,-1.637,-1.6358,-1.6373,-1.6331,-1.6336,-1.6302,-1.6305,-1.6302,-1.625,-1.6241,-1.6194,-1.6175,-1.615,-1.6174,-1.6154,-1.6184,-1.6178,-1.6214,-1.6211,-1.6335,-1.6348,-1.6214,-1.6215,-1.6217,0,-1.6517,-1.6529,-1.6481,-1.6478,-1.646,-1.6455,-1.6446,-1.6392,-1.6385,-1.6352,-1.6361,-1.6347,-1.6334,-1.6323,-1.6284,-1.6268,-1.6248,-1.6292,-1.6246,-1.626,-1.625,-1.625,-1.6251,-1.6303,-1.6305,-1.6306,-1.6308,0,-1.6632,-1.6608,-1.6598,-1.658,-1.6571,-1.6554,-1.6533,-1.6534,-1.6473,-1.6468,-1.6459,-1.6448,-1.6428,-1.6416,-1.6393,-1.6371,-1.633,-1.6322,-1.6329,-1.6345,-1.6363,-1.6354,-1.6213,-1.632,-1.6319,-1.6318,-1.6317,-1.6317,-1.6723,-1.673,-1.6697,-1.6687,-1.6666,-1.6648,-1.665,-1.6616,-1.6607,-1.6586,-1.6554,-1.6549,-1.6518,-1.6484,-1.6465,-1.646,-1.6436,-1.6446,-1.6448,-1.6452,-1.646,-1.6362,-1.6455,-1.6455,-1.6455,-1.6454,-1.6454,0,-1.6835,-1.681,-1.6802,-1.6775,-1.6767,-1.6727,-1.6702,-1.6698,-1.6694,-1.6668,-1.6656,-1.6645,-1.6632,-1.6591,-1.6574,-1.6577,-1.6558,-1.6575,-1.6575,-1.657,-1.6482,-1.6478,-1.6591,-1.6591,-1.6591,-1.6591,-1.6591,-1.6591,-1.6893,-1.6903,-1.6875,-1.6874,-1.6849,-1.6844,-1.6833,-1.6816,-1.6795,-1.6784,-1.6773,-1.6746,-1.6714,-1.6694,-1.668,-1.6668,-1.6665,-1.6689,-1.6671,-1.659,-1.6577,-1.6564,-1.656,-1.6688,-1.6688,-1.6759,-1.676,-1.6761]},{"header":{"parameterUnit":"m.s-1","parameterCategory":1,"la1":30.2991,"la2":30.254,"lo1":-89.0895,"lo2":-89.0444,"dy":0.0017,"dx":0.0017,"nx":28,"ny":28,"refTime":"2023-09-09T21:00:00:Z","depth":0,"parameterNumber":3,"parameterNumberName":"V-component_of_WINDS"},"data":[0,0,0,0,0,0,0,0,0,0,0,0,0,0,0,0,0,0,0,0,0,0,0,0,0,0,0,0,0,0,0,0,0,0,0,0,0,0,0,0,0,0,0,0,0,0,0,0,0,0,0,0,0,0,0,0,0,0,-2.0844,-2.0844,0,-2.0861,-2.0862,-2.0862,-2.0834,-2.0833,-2.0832,-2.0831,-2.0847,-2.0848,-2.0849,0,0,0,0,0,0,0,0,0,0,0,0,0,-2.0784,-2.0785,-2.0844,-2.0844,-2.0844,-2.0861,-2.0862,-2.0862,-2.0834,-2.0833,-2.0831,-2.083,-2.0846,-2.0848,-2.0849,0,0,0,0,0,0,0,0,0,0,0,0,0,-2.0806,-2.0785,-2.0844,-2.0832,-2.0831,-2.0861,-2.0862,-2.0862,-2.0834,-2.0833,-2.0831,-2.083,-2.0846,-2.0848,-2.085,-2.0891,0,0,-2.0856,-2.0856,0,0,0,0,0,0,0,0,-2.0805,-2.0809,-2.0834,-2.0833,-2.0832,-2.0844,-2.0846,-2.0871,-2.0834,-2.0833,-2.0831,-2.0829,-2.0847,-2.0849,-2.0855,-2.0891,-2.0892,-2.0856,-2.0857,-2.0858,-2.0858,0,0,0,0,0,0,0,-2.0804,-2.0808,-2.0851,-2.0834,-2.0833,-2.0826,-2.0827,-2.0851,-2.0848,-2.0833,-2.0831,-2.0834,-2.0846,-2.0853,-2.0855,-2.0892,-2.0856,-2.0857,-2.0859,-2.0859,-2.0964,-2.0965,0,0,0,0,0,0,-2.0804,-2.0807,-2.085,-2.0851,-2.0815,-2.0828,-2.083,-2.0842,-2.0847,-2.0847,-2.0835,-2.0832,-2.085,-2.0853,-2.0856,-2.0905,-2.0858,-2.086,-2.0861,-2.0962,-2.0964,-2.0966,0,0,0,0,0,0,-2.0803,-2.0808,-2.0849,-2.0828,-2.0833,-2.083,-2.0844,-2.0843,-2.085,-2.0849,-2.0848,-2.0843,-2.0849,-2.0853,-2.0882,-2.0905,-2.0861,-2.0862,-2.0961,-2.0963,-2.0965,-2.1003,0,0,0,0,0,0,-2.0801,-2.0808,-2.0824,-2.0829,-2.0834,-2.0877,-2.0845,-2.0844,-2.0853,-2.085,-2.0856,-2.0856,-2.0848,-2.088,-2.0884,-2.0907,-2.0864,-2.0959,-2.0962,-2.0964,-2.1,-2.1006,-2.1012,0,0,0,0,0,-2.0799,-2.0833,-2.0825,-2.083,-2.0854,-2.0878,-2.0881,-2.0873,-2.0855,-2.0871,-2.0871,-2.0855,-2.0902,-2.0883,-2.0888,-2.0911,-2.0957,-2.0961,-2.0964,-2.0997,-2.1005,-2.1012,0,0,0,0,0,0,-2.0829,-2.0833,-2.0824,-2.0861,-2.087,-2.0873,-2.0893,-2.0882,-2.0894,-2.0891,-2.0879,-2.0881,-2.0913,-2.0915,-2.0894,-2.0952,-2.0926,-2.0931,-2.0949,-2.0957,-2.0963,-2.0962,-2.0866,0,0,0,0,0,-2.0841,-2.086,-2.0862,-2.0894,-2.0899,-2.0896,-2.0905,-2.0899,-2.0907,-2.091,-2.0911,-2.0919,-2.0935,-2.0946,-2.0961,-2.1,-2.1001,-2.1018,-2.1024,-2.1029,-2.1034,-2.1055,-2.1063,-2.0978,-2.0978,-2.0978,0,0,-2.0863,-2.0868,-2.0881,-2.0901,-2.0907,-2.0927,-2.0899,-2.0921,-2.0936,-2.0913,-2.0941,-2.0943,-2.0951,-2.0985,-2.1001,-2.0988,-2.1058,-2.1034,-2.1038,-2.104,-2.1059,-2.1068,-2.1075,-2.098,-2.098,-2.0979,0,0,-2.0916,-2.0921,-2.0949,-2.0956,-2.0965,-2.0963,-2.0969,-2.0975,-2.0975,-2.1004,-2.0988,-2.1004,-2.1032,-2.1039,-2.1046,-2.1101,-2.1088,-2.1106,-2.1139,-2.116,-2.1166,-2.1172,-2.1192,-2.12,-2.1111,-2.1111,-2.1111,0,-2.0943,-2.0973,-2.0965,-2.0989,-2.0998,-2.0979,-2.1007,-2.1014,-2.1027,-2.1034,-2.1019,-2.1055,-2.1059,-2.1095,-2.1109,-2.1115,-2.1122,-2.1106,-2.1166,-2.1172,-2.1177,-2.1197,-2.1204,-2.1113,-2.1113,-2.1113,-2.1112,0,-2.1007,-2.1028,-2.1049,-2.1064,-2.1075,-2.1101,-2.1096,-2.1109,-2.1101,-2.11,-2.1129,-2.1133,-2.1149,-2.1157,-2.1149,-2.1192,-2.1184,-2.1168,-2.1142,-2.1188,-2.1206,-2.1213,-2.1116,-2.1115,-2.1115,-2.1114,0,0,-2.1078,-2.1089,-2.1097,-2.1104,-2.1113,-2.1129,-2.1154,-2.117,-2.1181,-2.1191,-2.1211,-2.1236,-2.1222,-2.123,-2.1222,-2.124,-2.1285,-2.1222,-2.1222,-2.1234,-2.1333,-2.1346,-2.1354,-2.1276,-2.1277,-2.1278,-2.1333,0,-2.1131,-2.1175,-2.1169,-2.1211,-2.123,-2.1213,-2.1235,-2.1242,-2.1242,-2.1258,-2.1257,-2.1275,-2.1254,-2.1259,-2.1276,-2.1276,-2.1305,-2.1272,-2.1295,-2.1296,-2.1294,-2.1364,-2.1377,-2.1428,-2.134,-2.1341,-2.1342,0,-2.1199,-2.1212,-2.1257,-2.1264,-2.1272,-2.1292,-2.1306,-2.1322,-2.133,-2.1329,-2.1338,-2.1327,-2.1352,-2.1326,-2.1359,-2.1337,-2.1346,-2.1347,-2.1349,-2.1351,-2.1322,-2.1368,-2.1444,-2.1452,-2.1352,-2.1352,-2.1351,0,-2.1248,-2.1277,-2.1308,-2.1314,-2.1322,-2.1337,-2.1341,-2.1348,-2.1358,-2.1371,-2.1377,-2.1392,-2.14,-2.1412,-2.1405,-2.1387,-2.144,-2.1413,-2.1439,-2.144,-2.1452,-2.1451,-2.1531,-2.1457,-2.1457,-2.1456,-2.1456,0,-2.1307,-2.1336,-2.133,-2.1349,-2.138,-2.1372,-2.1402,-2.1404,-2.141,-2.1429,-2.1414,-2.1432,-2.1422,-2.1439,-2.1434,-2.1463,-2.1466,-2.1465,-2.1464,-2.1467,-2.1467,-2.1473,-2.147,-2.1458,-2.1458,-2.1458,-2.1457,0,-2.1367,-2.1365,-2.1397,-2.1403,-2.1405,-2.1428,-2.1433,-2.145,-2.1449,-2.1473,-2.1478,-2.1475,-2.1494,-2.1489,-2.1509,-2.1506,-2.1542,-2.1536,-2.154,-2.1539,-2.1565,-2.1563,-2.1652,-2.1663,-2.1581,-2.1582,-2.1583,0,-2.1406,-2.1428,-2.1436,-2.1448,-2.1454,-2.1473,-2.1484,-2.1476,-2.1488,-2.15,-2.1516,-2.1534,-2.1548,-2.1579,-2.1579,-2.1594,-2.1588,-2.1618,-2.159,-2.1593,-2.1589,-2.1589,-2.1591,-2.1624,-2.1625,-2.1626,-2.1626,0,-2.1475,-2.1473,-2.149,-2.1507,-2.1521,-2.1533,-2.1544,-2.1554,-2.1547,-2.1561,-2.1581,-2.1592,-2.1614,-2.1632,-2.1646,-2.1649,-2.1637,-2.1635,-2.1642,-2.1646,-2.1648,-2.1648,-2.1556,-2.1633,-2.1632,-2.1632,-2.1632,-2.1631,-2.1526,-2.1545,-2.1554,-2.1574,-2.1581,-2.1592,-2.1609,-2.161,-2.1627,-2.1645,-2.1639,-2.1662,-2.1669,-2.1688,-2.1693,-2.171,-2.1699,-2.1709,-2.1711,-2.1714,-2.1718,-2.1645,-2.1713,-2.1712,-2.1712,-2.1712,-2.1712,0,-2.1595,-2.1601,-2.1619,-2.1635,-2.165,-2.1638,-2.165,-2.1663,-2.1684,-2.1693,-2.1707,-2.173,-2.1748,-2.1749,-2.1765,-2.1779,-2.1774,-2.1783,-2.1783,-2.1784,-2.1727,-2.172,-2.1788,-2.1788,-2.1788,-2.1788,-2.1788,-2.1788,-2.1633,-2.1664,-2.1663,-2.1698,-2.1703,-2.1726,-2.1734,-2.1743,-2.1751,-2.1777,-2.1792,-2.1793,-2.1799,-2.1816,-2.1831,-2.1831,-2.1838,-2.185,-2.1848,-2.1795,-2.1788,-2.178,-2.1774,-2.1852,-2.1852,-2.1904,-2.1904,-2.1904]}]]